Weather History for KTXK - March, 2014

Change the Weather History Date:

Sunday, March 9, 2014

  Actual Average Record
Temperature  
Mean Temperature 48 °F 54 °F  
Max Temperature 53 °F 65 °F 83 °F (1993)
Min Temperature 43 °F 43 °F 15 °F (1932)
Degree Days  
Heating Degree Days 17 11  
Month to date heating degree days 187 111  
Since 1 July heating degree days 2655 2305  
Cooling Degree Days 0 0  
Month to date cooling degree days 0 0  
Year to date cooling degree days 0 4  
Moisture  
Dew Point 45 °F    
Average Humidity 87    
Maximum Humidity 96    
Minimum Humidity 77    
Precipitation  
Precipitation T in 0.14 in 2.04 in (2015)
Month to date precipitation 1.37 1.28  
Year to date precipitation 5.29 8.67  
Snow  
Snow 0.00 in - - ()
Month to date snowfall T  
Since 1 July snowfall 1.7  
Snow Depth 0.00 in    
Sea Level Pressure  
Sea Level Pressure 30.25 in    
Wind  
Wind Speed 4 mph (NNW)    
Max Wind Speed 15 mph    
Max Gust Speed 20 mph    
Visibility 3 miles    
Events      
T = Trace of Precipitation, MM = Missing Value Source: NWS Daily Summary

Daily Weather History Graph

Daily Weather History Graph

Search for Another Location

Airport or City:

Trip Planner

Search our weather history database for the weather conditions in past years. The results will help you decide how hot, cold, wet, or windy it might be!

Date:

Astronomy

Mar. 09, 2014 Rise Set
Actual Time 7:34 AM CDT 7:19 PM CDT
Civil Twilight 7:09 AM CDT 7:44 PM CDT
Nautical Twilight 6:40 AM CDT 8:12 PM CDT
Astronomical Twilight 6:11 AM CDT 8:41 PM CDT
Moon 1:24 PM CDT (3/9) 3:48 AM CDT (3/9)
Length of Visible Light 12h 34m
Length of Day
11h 45m
First Quarter, 61% of the Moon is Illuminated
Mar 9
First Quarter
Mar 16
Full
Mar 23
Last Quarter
Mar 30
New
Apr 7
First Quarter

Hourly Weather History & Observations

Time (CDT) Temp. Windchill Dew Point Humidity Pressure Visibility Wind Dir Wind Speed Gust Speed Precip Events Conditions
12:53 AM 46.9 °F - 45.0 °F 93% 30.21 in 3.0 mi NW 4.6 mph - 0.00 in   Overcast
1:53 AM 46.9 °F - 45.0 °F 93% 30.22 in 4.0 mi NW 8.1 mph - N/A   Overcast
3:53 AM 45.0 °F 41.8 °F 43.0 °F 93% 30.22 in 4.0 mi WNW 5.8 mph - N/A   Overcast
4:53 AM 44.1 °F 40.8 °F 42.1 °F 93% 30.21 in 4.0 mi NW 5.8 mph - N/A   Overcast
5:46 AM 44.6 °F 40.2 °F 42.8 °F 93% 30.23 in 5.0 mi WNW 8.1 mph - N/A   Overcast
5:53 AM 43.0 °F 38.8 °F 41.0 °F 93% 30.23 in 5.0 mi NW 6.9 mph - N/A   Overcast
6:53 AM 43.0 °F 39.5 °F 41.0 °F 93% 30.26 in 5.0 mi NW 5.8 mph - N/A   Overcast
7:53 AM 44.1 °F 41.5 °F 42.1 °F 93% 30.27 in 4.0 mi NNW 4.6 mph - N/A   Overcast
8:10 AM 44.6 °F - 42.8 °F 93% 30.27 in 2.5 mi Calm Calm - N/A   Overcast
8:22 AM 44.6 °F 43.1 °F 42.8 °F 93% 30.28 in 1.5 mi NNW 3.5 mph - N/A   Overcast
8:29 AM 44.6 °F 42.2 °F 42.8 °F 93% 30.28 in 1.0 mi NNW 4.6 mph - N/A   Overcast
8:53 AM 45.0 °F - 43.0 °F 93% 30.29 in 1.5 mi Calm Calm - N/A   Overcast
9:09 AM 44.6 °F - 44.6 °F 100% 30.30 in 2.0 mi Calm Calm - N/A   Overcast
9:53 AM 46.9 °F - 44.1 °F 90% 30.31 in 1.5 mi NE 6.9 mph - N/A   Overcast
10:04 AM 46.4 °F 42.9 °F 44.6 °F 93% 30.31 in 1.2 mi NE 6.9 mph - N/A   Overcast
10:31 AM 46.4 °F 42.9 °F 44.6 °F 93% 30.31 in 0.8 mi ENE 6.9 mph - N/A   Overcast
10:53 AM 46.0 °F 43.1 °F 44.1 °F 93% 30.31 in 1.0 mi ENE 5.8 mph - N/A   Overcast
11:36 AM 46.4 °F 43.5 °F 44.6 °F 93% 30.32 in 1.5 mi NE 5.8 mph - N/A   Overcast
11:53 AM 46.9 °F - 44.1 °F 90% 30.32 in 1.8 mi East 4.6 mph - N/A   Overcast
12:05 PM 46.4 °F 42.9 °F 44.6 °F 93% 30.31 in 2.0 mi ENE 6.9 mph - N/A   Overcast
12:50 PM 48.2 °F - 44.6 °F 87% 30.29 in 3.0 mi ENE 5.8 mph - N/A   Haze
12:53 PM 48.9 °F - 44.1 °F 83% 30.29 in 3.0 mi ENE 5.8 mph - N/A   Haze
1:05 PM 48.2 °F - 44.6 °F 87% 30.29 in 3.0 mi NE 6.9 mph - N/A   Haze
1:53 PM 50.0 °F - 44.1 °F 80% 30.28 in 3.0 mi Calm Calm - N/A   Haze
2:53 PM 52.0 °F - 45.0 °F 77% 30.25 in 4.0 mi Calm Calm - N/A   Haze
3:33 PM 51.8 °F - 44.6 °F 76% 30.24 in 4.0 mi Calm Calm - N/A   Haze
3:53 PM 52.0 °F - 45.0 °F 77% 30.24 in 4.0 mi Calm Calm - N/A   Haze
4:53 PM 53.1 °F - 46.0 °F 77% 30.22 in 4.0 mi SSW 3.5 mph - N/A   Haze
5:53 PM 53.1 °F - 46.0 °F 77% 30.21 in 4.0 mi South 4.6 mph - N/A   Haze
6:53 PM 52.0 °F - 46.9 °F 83% 30.21 in 4.0 mi SSW 4.6 mph - N/A   Haze
7:53 PM 51.1 °F - 46.9 °F 86% 30.20 in 4.0 mi SSW 3.5 mph - N/A   Overcast
8:00 PM 51.8 °F - 46.4 °F 82% 30.20 in 4.0 mi SSW 3.5 mph - N/A   Overcast
8:53 PM 51.1 °F - 46.9 °F 86% 30.20 in 5.0 mi SSW 3.5 mph - N/A   Overcast
9:53 PM 51.1 °F - 46.9 °F 86% 30.21 in 5.0 mi Calm Calm - N/A   Overcast
10:53 PM 51.1 °F - 46.9 °F 86% 30.22 in 4.0 mi Calm Calm - N/A   Overcast
11:42 PM 50.0 °F - 46.4 °F 87% 30.21 in 4.0 mi SSW 3.5 mph - N/A   Overcast
11:53 PM 50.0 °F - 46.9 °F 89% 30.21 in 4.0 mi SSW 3.5 mph - N/A   Overcast
12:53 AM 50.0 °F - 46.9 °F 89% 30.20 in 5.0 mi Calm Calm - N/A   Overcast